Weather History for Enid, OK

Change the Weather History Date:

Monday, August 18, 2014

  Actual Average Record
Temperature  
Mean Temperature 87 °F -  
Max Temperature 105 °F 91 °F 105 °F (2011)
Min Temperature 69 °F 68 °F 62 °F (2013)
Cooling Degree Days 22    
Growing Degree Days 37 (Base 50)    
Moisture  
Dew Point 65 °F    
Average Humidity 68    
Maximum Humidity 88    
Minimum Humidity 23    
Precipitation  
Precipitation 0.23 in - - ()
Sea Level Pressure  
Sea Level Pressure 29.89 in    
Wind  
Wind Speed 11 mph (SSE)    
Max Wind Speed 25 mph    
Max Gust Speed 33 mph    
Visibility 10 miles    
Events Rain , Thunderstorm    
Averages and records for this station are not official NWS values.
T = Trace of Precipitation, MM = Missing Value Source: NWS Daily Summary

Daily Weather History Graph

Daily Weather History Graph

Search for Another Location

Airport:

Trip Planner

Search our weather history database for the weather conditions in past years. The results will help you decide how hot, cold, wet, or windy it might be!

Date:

Astronomy

Aug. 18, 2014 Rise Set
Actual Time 6:51 AM CDT 8:17 PM CDT
Civil Twilight 6:24 AM CDT 8:44 PM CDT
Nautical Twilight 5:51 AM CDT 9:17 PM CDT
Astronomical Twilight 5:17 AM CDT 9:51 PM CDT
Moon 1:01 AM CDT (8/18) 3:19 PM CDT (8/18)
Length of Visible Light 14h 20m
Length of Day
13h 26m
Last Quarter, 38% of the Moon is Illuminated
Aug 18
Last Quarter
Aug 25
New
Sep 2
First Quarter
Sep 8
Full
Sep 15
Last Quarter

Hourly Weather History & Observations

Time (CDT) Temp. Heat Index Dew Point Humidity Pressure Visibility Wind Dir Wind Speed Gust Speed Precip Events Conditions
12:15 AM 78.8 °F - 68.0 °F 69% 29.91 in 10.0 mi SE 6.9 mph - N/A   Clear
12:35 AM 77.0 °F - 69.8 °F 78% 29.90 in 10.0 mi SE 6.9 mph - N/A   Clear
12:55 AM 77.0 °F - 69.8 °F 78% 29.90 in 10.0 mi SE 5.8 mph - N/A   Clear
1:15 AM 75.2 °F - 69.8 °F 83% 29.90 in 10.0 mi SSE 5.8 mph - N/A   Clear
1:35 AM 73.4 °F - 69.8 °F 88% 29.90 in 10.0 mi SE 3.5 mph - N/A   Clear
1:55 AM 73.4 °F - 69.8 °F 88% 29.90 in 10.0 mi SSE 4.6 mph - N/A   Clear
2:15 AM 73.4 °F - 69.8 °F 88% 29.90 in 10.0 mi Calm Calm - N/A   Clear
2:35 AM 73.4 °F - 69.8 °F 88% 29.94 in 10.0 mi North 20.7 mph - N/A   Scattered Clouds
2:55 AM 77.0 °F - 64.4 °F 65% 29.95 in 10.0 mi NNE 24.2 mph 33.4 mph N/A   Mostly Cloudy
3:15 AM 75.2 °F - 68.0 °F 78% 29.94 in 10.0 mi ENE 25.3 mph 31.1 mph N/A Thunderstorm Scattered Clouds
3:35 AM 71.6 °F - 68.0 °F 88% 29.94 in 10.0 mi NE 21.9 mph 33.4 mph N/A Thunderstorm Unknown
3:55 AM 71.6 °F - 66.2 °F 83% 29.93 in 10.0 mi ENE 20.7 mph 28.8 mph N/A Thunderstorm Scattered Clouds
4:15 AM 71.6 °F - 66.2 °F 83% 29.92 in 10.0 mi ENE 17.3 mph 28.8 mph N/A Thunderstorm Clear
4:35 AM 71.6 °F - 66.2 °F 83% 29.92 in 10.0 mi East 15.0 mph 18.4 mph N/A   Clear
4:55 AM 71.6 °F - 68.0 °F 88% 29.93 in 10.0 mi East 21.9 mph 27.6 mph N/A   Clear
5:15 AM 71.6 °F - 66.2 °F 83% 29.93 in 10.0 mi ESE 12.7 mph 18.4 mph N/A   Clear
5:35 AM 69.8 °F - 66.2 °F 88% 29.93 in 10.0 mi SE 8.1 mph - N/A   Clear
5:55 AM 69.8 °F - 64.4 °F 83% 29.93 in 10.0 mi ESE 10.4 mph - N/A   Clear
6:15 AM 71.6 °F - 64.4 °F 78% 29.91 in 10.0 mi South 4.6 mph - N/A   Scattered Clouds
6:50 AM 69.8 °F - 64.4 °F 83% 29.89 in 10.0 mi South 8.1 mph - N/A   Mostly Cloudy
7:50 AM 69.8 °F - 66.2 °F 88% 29.89 in 10.0 mi SSW 4.6 mph - N/A   Mostly Cloudy
8:50 AM 77.0 °F - 66.2 °F 69% 29.87 in 10.0 mi SSW 11.5 mph - N/A   Scattered Clouds
9:50 AM 86.0 °F 88.2 °F 66.2 °F 51% 29.85 in 10.0 mi South 13.8 mph - N/A   Scattered Clouds
10:50 AM 91.4 °F 94.0 °F 66.2 °F 43% 29.86 in 10.0 mi South 15.0 mph - N/A   Scattered Clouds
11:50 AM 96.8 °F 100.7 °F 66.2 °F 37% 29.87 in 10.0 mi SSW 10.4 mph 16.1 mph N/A   Scattered Clouds
12:50 PM 100.4 °F 103.6 °F 64.4 °F 31% 29.86 in 10.0 mi SSW 10.4 mph 17.3 mph N/A   Scattered Clouds
1:50 PM 102.2 °F 105.5 °F 64.4 °F 29% 29.84 in 10.0 mi SSW 11.5 mph 19.6 mph N/A   Scattered Clouds
2:55 PM 104.0 °F 107.4 °F 64.4 °F 27% 29.82 in 10.0 mi WSW 11.5 mph 20.7 mph N/A   Scattered Clouds
3:55 PM 105.8 °F 107.5 °F 60.8 °F 23% 29.79 in 10.0 mi SSW 17.3 mph - N/A Thunderstorm Thunderstorm
7:50 PM 77.0 °F - 62.6 °F 61% 29.78 in 10.0 mi SSE 17.3 mph - N/A   Mostly Cloudy
8:50 PM 77.0 °F - 62.6 °F 61% 29.84 in 10.0 mi West 11.5 mph 23.0 mph N/A Rain , Thunderstorm Light Thunderstorms and Rain
9:15 PM 77.0 °F - 62.6 °F 61% 29.92 in 4.0 mi West 5.8 mph 23.0 mph 0.12 in Rain , Thunderstorm Heavy Thunderstorms and Rain
9:35 PM 73.4 °F - 60.8 °F 65% 29.90 in 7.0 mi SW 18.4 mph - 0.18 in Rain , Thunderstorm Heavy Thunderstorms and Rain
9:55 PM 71.6 °F - 60.8 °F 69% 29.89 in 10.0 mi WSW 23.0 mph 29.9 mph 0.22 in Rain , Thunderstorm Thunderstorms and Rain
10:15 PM 71.6 °F - 60.8 °F 69% 29.90 in 10.0 mi SW 21.9 mph - 0.01 in Rain Rain
10:35 PM 78.8 °F - 55.4 °F 44% 29.86 in 10.0 mi South 9.2 mph 25.3 mph 0.01 in Rain Light Rain
11:15 PM 75.2 °F - 62.6 °F 65% 29.86 in 10.0 mi South 19.6 mph - N/A Thunderstorm Clear
11:55 PM 77.0 °F - 64.4 °F 65% 29.84 in 10.0 mi South 24.2 mph 31.1 mph N/A Thunderstorm Clear